Timeline UpdatesTrip UpdatesNews PostsPvt PostsTravel TipsAdmin PostsConv PostsFollowed PostsChat RequestsBlog PostsPNR Posts

Disclaimer
Search
 
 
Fri Aug 22, 2014 21:14:45 ISTHomeTrainsΣChainsAtlasPNRForumGalleryNewsFAQTripsMembersLoginFeedback
No Recent News for this Train
Other Trains in the News **new
Latest...
-
Tue Feb 11, 2014 (11:47AM)
⇐ Return Journey: Train# 13020

13019/Bagh Express

Mar 23 2014 (4:38PM)
Change Departure Station:
Change Arrival Station:
Post a Train Travel TipPost a Train Travel Tip **new
Post a Comment/Question/Picture/VideoPost a Comment/Question/Picture/Video
Pantry/Catering
✕ NO Pantry Car
✓ Catering Avbl
Loco/Rake Reversals
RMU/Rampur Junction (3); LJN/Lucknow Junction (6);
RSA - Rake Sharing
Rake/Coach Composition
LOCO-SLR-GS-GS-GS-S1-S2-S3-S4-S5-S6-S7-B1-A1-GS-GS-SLR
Loco
HWH WAP-4 (HWH-BJU); IZN WDP-4D (BJU-KGM)
News    PNR    Forum    Time-Table    Availability    Fare Chart    Map    Arr/Dep History    Trips    Gallery    ΣChains    X/O    Timeline    
Travel Time: 35h 45m    65 halts    Distance: 1519 km    Avg Speed: 42 km/hr
Type: Mail/Express
Zone: ER/Eastern
Departs @ 21:45 (Avg 29m late)
Platform# 11
SMTWTFS
Kolkata Howrah Junction/HWH 
Arrives @ 09:30 +2 nights (Avg 1h 56m late)
Platform# 1
SMTWTFS
Kathgodam/KGM 

65 halts. 277 intermediate Stations between Kolkata Howrah Junction and Kathgodam

Show ALL intermediate Stations  Show Old Time-Table

#CodeStation NameX/OArrivesAvgDepartsAvgHaltPFDay#KmSpeedElevZoneAddress
1HWH»Kolkata Howrah Junction (23)»  -21:45+291110.05910mERHowrah 711101, West Bengal
2SRPSerampore (4)X  22:05+3722:06+411m--119.54011mERdist - hooghly, West Bengal
3BDCBandel Junction (7)  22:36+3422:41+335m--139.57914mERdist - HOOGHLY, West Bengal
4BWNBarddhaman Junction (8)X  23:32+4323:37+445m21106.77834mERDist - Barddhaman, West Bengal
5DGRDurgapur (5)  00:26+4300:28+442m32170.37971mERDurgapur, West Bengal
6UDLAndal Junction (6)X  00:41+4700:43+472m--2187.35586mERAndal, West Bengal
7RNGRaniGanj (4)  00:51+4900:53+492m22194.64392mERRaniganj, West Bengal
8ASNAsansol Junction (7)XO  01:18+4201:23+475m--2212.763113mERDist - bardhaman, West Bengal
9CRJChittaranjan (3)X  01:47+5601:48+571m32237.885182mERMihijam, Jharkhand
10MDPMadhupur Junction (4)X  02:28+1:0802:33+1:085m--2294.267254mER06432-224478, Jharkhand
11JSMEJasidih Junction (5)X  02:59+1:1203:04+1:145m22323.366271mERJasidih, Jharkhand
12STLSimultala (2)XO  03:27+1:1003:28+1:081m--2348.720247mERSimultala, Bihar
13JAJJhajha (4)  04:25+4204:35+4210m--2367.487143mECRJhajha, Bihar
14JMUJamui (3)X  04:53+5204:55+532m--2393.46681mECRState Highway 72, Bihar
15KIULKiul Junction (5)  05:20+1:0405:25+1:045m--2420.71453mECRDist. Lakhisarai, Bihar
16LKRLuckeesarai Junction (2)  05:31+1:0505:33+1:052m22422.02852mECRLakhisarai, Bihar
17BRYABarhiya (3)XO  06:05+5306:07+542m--2437.12047mECRBarahiya, Bihar
18DKGSDinkar Gram Simaria (3)  06:55+1:0006:56+1:021m--2453.52147mECRSimaria Station, Bihar
19BJUBarauni Junction (9)07:13+1:0607:33+1:1320m82459.55249mECRBegusarai, Bihar
20BCABachwara Junction  07:52+1:2307:54+1:242m--2475.93949mECRBegusarai, Bihar
21DSSDalsingh Sarai (2)X  08:11+1:2208:13+1:232m12486.959 ECR06278-221238, Bihar
22NAZJNazirGanj  08:21+1:2208:23+1:232m--2494.85451mECRNazirGanj, Bihar
23UJPUjiarpur (2)X  08:30+1:2108:32+1:242m--2501.03251mECRSamastipur, Bihar
24SPJSamastipur Junction (9)X  08:49+1:2808:55+1:286m92510.13455mECRSamastipur, Bihar
25KPGMKarpurigram (3)  09:06+1:3709:08+1:382m--2516.36351mECRState Highway 49, Bihar
26KRBPKhudiram B Pusa  09:15+1:4009:17+1:412m--2523.76752mECRDistt. Samastipur, Bihar
27DOLDholi (2)X  09:29+1:4609:31+1:472m--2537.152 ECRDistt. Muzaffarpur, Bihar
28MFPMuzaffarpur Junction (6)X  10:00+1:5710:10+2:0110m42562.26557mECRMuzaffarpur, Bihar
29GRLGoraul (2)  10:34+2:2410:36+2:262m22588.16257mECRVAISHALI, Bihar
30BNRBhagwanpur (2)  10:44+2:2810:46+2:362m22596.44960mECRBhagwanpur, Bihar
31HJPHajipur Junction (3)X  11:10+2:4411:15+2:595m--2616.03355mECR06224-272230, Bihar
32SEESonpur Junction (4)  11:25+3:0211:35+2:5910m--2621.55756mECRSaran, Bihar
33NYONayagaon (2)  11:47+3:0311:49+3:042m--2632.95553mECRNayagaon Sarai, Bihar
34DGADighwara (2)XO  12:02+3:0612:04+3:092m--2644.73060mECR06158-281240, Bihar
35CPRChhapra Junction (6)X  13:05+3:0513:15+3:0510m142675.66858mNERDistt: Saran, Bihar
36DDPDaudpur (2)  13:32+3:1013:34+3:112m--2694.95759mNERChhapra, Bihar
37EKMAEkma (3)  13:43+3:1213:45+3:122m--2703.54464mNERSaran, Bihar
38CWChainwa (2)X  13:55+3:1213:57+3:142m--2710.84963mNERSiwan, Bihar
39DDADuraundha Junction (3)O  14:07+3:1414:09+3:162m12719.03064mNERDistt: Siwan, Bihar
40SVSiwan Junction (4)X  14:45+3:0314:50+3:035m--2736.87770mNERSiwan, Bihar
41ZRDEJiradei (2)X  14:58+3:0715:00+3:082m--2747.16069mNERSiwan, Bihar
42MWMairwa (2)X  15:11+3:0415:13+3:052m--2758.14973mNERMairwa, Bihar
43BTKBankata (2)  15:21+3:1015:23+3:102m--2764.65473mNERDeoria, Uttar Pradesh
44BHTRBhatpar Rani (2)  15:32+3:1115:34+3:112m--2772.74873mNERDeoria, Uttar Pradesh
45BTTBhatni Junction (5)X  15:50+3:1015:55+3:105m--2785.56973mNERDeoria, Uttar Pradesh
46DEOSDeoria Sadar (3)X  16:13+3:1616:15+3:192m22806.34479mNERDeoria- 274001, Uttar Pradesh
47CCChauri Chaura (2)  16:49+3:1716:51+3:172m--2831.13084mNERGorakhpur- PinCode:- 273201, Uttar Pradesh
48GKPGorakhpur Junction (10)X  17:40+3:2118:00+3:2120m22855.45784mNERGorakhpur 273001, Uttar Pradesh
49KLDKhalilabad (3)X  18:36+3:2718:38+3:272m--2889.36686mNERKhalilabad- 272175, Uttar Pradesh
50BSTBasti (4)X  19:05+3:2719:10+3:275m12918.97190mNERBasti 272001, Uttar Pradesh
51GDGonda Junction (3)X  20:25+3:2620:35+3:2310m121007.379110mNERGonda 271001, Uttar Pradesh
52JLDJarwal Road (2)  21:10+3:3721:12+3:372m121053.454112mNERBehraich, Uttar Pradesh
53BBKBarabanki Junction (4)XO  22:00+3:3922:02+3:402m221096.640122mNRPin-225001, Uttar Pradesh
54BNZBadshahnagar (2)  22:39+3:3622:40+3:381m121121.211116mNERLucknow, Uttar Pradesh
55LCLucknow City (3)X  23:15-23:17-2m121127.56127mNERLucknow, Uttar Pradesh
56LJNLucknow Junction (6)X00:01+2:4300:25+2:4724m131132.367126mNERLucknow, Uttar Pradesh
57HRIHardoi (5)X01:56+3:0901:58+3:092m--31233.467146mNRHardoi, Uttar Pradesh
58ROZARoza Junction (4)X  02:48+3:0002:50+3:112m--31289.024156mNRShahjahanpur, Uttar Pradesh
59SPNShahjahanpur Junction (3)X  03:08+3:0503:13+3:055m--31296.372156mNRShahjahanpur, Uttar Pradesh
60BEBareilly Junction (4)X  04:12+3:1304:20+3:168m231366.850174mNRBareilly, Uttar Pradesh
61RMURampur Junction (3)05:35+2:5506:00+2:4725m131429.862190mNRRampur, Uttar Pradesh
62BLQRBilaspur Road (1)  06:26+3:0506:27+3:071m131456.751196mNERRampur, Uttar Pradesh
63RUPCRudrapur City (2)  06:48+3:0206:53+3:035m131474.724208mNERUdham Singh Nagar, Uttarakhand
64HLDDHaldi Road  07:28+2:4407:30+2:452m--31488.713236mNERNH 87, Uttarakhand
65LKULal Kuan Junction (4)X  08:05+2:2608:10+2:335m131496.319262mNERLalkuan, Uttarakhand
66HDWHaldwani (3)  09:01+2:1409:03+2:172m131512.713443mNERHaldwani, Uttarakhand
67KGM•Kathgodam (3)•  09:30+1:56-131518.6-520mNERKathgodam, Uttarakhand
Scroll to Top
Scroll to Bottom